EN

Hourly Weather Gjirokaster

Today, 2 March, Tuesday

Time Temperature Precipitation Wind Pressure Humidity
00:00 +2°C° 0 mm 2 mps 656 mmHg 75%
01:00 +2°C° 0 mm 1 mps 656 mmHg 72%
02:00 +1°C° 0 mm 2 mps 656 mmHg 70%
03:00 +1°C° 0 mm 2 mps 656 mmHg 67%
04:00 -1°C° 0 mm 2 mps 656 mmHg 64%
05:00 -1°C° 0 mm 2 mps 656 mmHg 65%
06:00 -1°C° 0 mm 2 mps 657 mmHg 65%
07:00 -1°C° 0 mm 2 mps 657 mmHg 66%
08:00 +2°C° 0 mm 2 mps 658 mmHg 59%
09:00 +3°C° 0 mm 2 mps 658 mmHg 52%
10:00 +5°C° 0 mm 2 mps 659 mmHg 45%
11:00 +6°C° 0 mm 2 mps 659 mmHg 43%
12:00 +6°C° 0 mm 2 mps 659 mmHg 40%
13:00 +7°C° 0 mm 2 mps 660 mmHg 37%
14:00 +7°C° 0 mm 2 mps 659 mmHg 41%
15:00 +7°C° 0 mm 3 mps 659 mmHg 46%
16:00 +5°C° 0 mm 3 mps 659 mmHg 50%
17:00 +4°C° 0 mm 3 mps 659 mmHg 59%
18:00 +4°C° 0 mm 2 mps 659 mmHg 67%
19:00 +2°C° 0 mm 2 mps 658 mmHg 76%
20:00 +2°C° 0 mm 2 mps 658 mmHg 74%
21:00 +1°C° 0 mm 2 mps 658 mmHg 71%
22:00 +2°C° 0 mm 1 mps 658 mmHg 69%
23:00 +2°C° 0 mm 1 mps 658 mmHg 67%

Tomorrow, 3 March, Wednesday

Time Temperature Precipitation Wind Pressure Humidity
00:00 +1°C° 0 mm 1 mps 658 mmHg 65%
01:00 +1°C° 0 mm 1 mps 658 mmHg 63%
02:00 +1°C° 0 mm 1 mps 658 mmHg 61%
03:00 +1°C° 0 mm 1 mps 657 mmHg 60%
04:00 +1°C° 0 mm 1 mps 657 mmHg 58%
05:00 +1°C° 0 mm 1 mps 657 mmHg 57%
06:00 +1°C° 0 mm 1 mps 657 mmHg 56%
07:00 +1°C° 0 mm 1 mps 658 mmHg 55%
08:00 +3°C° 0 mm 1 mps 658 mmHg 49%
09:00 +6°C° 0 mm 1 mps 659 mmHg 43%
10:00 +7°C° 0 mm 0 mps 660 mmHg 37%
11:00 +9°C° 0 mm 1 mps 660 mmHg 37%
12:00 +10°C° 0 mm 1 mps 660 mmHg 37%
13:00 +10°C° 0 mm 1 mps 660 mmHg 36%
14:00 +10°C° 0 mm 1 mps 660 mmHg 41%
15:00 +9°C° 0 mm 1 mps 659 mmHg 45%
16:00 +8°C° 0 mm 2 mps 659 mmHg 50%
17:00 +7°C° 0 mm 1 mps 658 mmHg 56%
18:00 +6°C° 0 mm 1 mps 658 mmHg 62%
19:00 +4°C° 0 mm 1 mps 658 mmHg 68%
20:00 +4°C° 0 mm 1 mps 657 mmHg 68%
21:00 +4°C° 0 mm 1 mps 657 mmHg 67%
22:00 +3°C° 0 mm 0 mps 657 mmHg 67%
23:00 +2°C° 0 mm 0 mps 657 mmHg 67%

Day after tomorrow, 4 March, Thursday

Time Temperature Precipitation Wind Pressure Humidity
00:00 +2°C° 0 mm 0 mps 657 mmHg 67%
01:00 +2°C° 0 mm 0 mps 656 mmHg 67%
02:00 +3°C° 0 mm 1 mps 656 mmHg 67%
03:00 +2°C° 0 mm 1 mps 656 mmHg 67%
04:00 +2°C° 0 mm 1 mps 655 mmHg 67%
05:00 +2°C° 0 mm 1 mps 655 mmHg 66%
06:00 +3°C° 0 mm 1 mps 655 mmHg 65%
07:00 +3°C° 0 mm 1 mps 655 mmHg 65%
08:00 +5°C° 0 mm 1 mps 655 mmHg 58%
09:00 +7°C° 0 mm 1 mps 656 mmHg 51%
10:00 +8°C° 0 mm 1 mps 656 mmHg 45%
11:00 +9°C° 0 mm 1 mps 656 mmHg 43%
12:00 +9°C° 0 mm 1 mps 656 mmHg 42%
13:00 +10°C° 0 mm 1 mps 656 mmHg 41%
14:00 +10°C° 0 mm 1 mps 655 mmHg 44%
15:00 +9°C° 0 mm 1 mps 655 mmHg 47%
16:00 +9°C° 0 mm 1 mps 654 mmHg 51%
17:00 +7°C° 0 mm 1 mps 654 mmHg 58%
18:00 +5°C° 0 mm 1 mps 653 mmHg 65%
19:00 +3°C° 0 mm 0 mps 653 mmHg 73%
20:00 +2°C° 0 mm 0 mps 653 mmHg 72%
21:00 +2°C° 0 mm 0 mps 653 mmHg 72%
22:00 +2°C° 0 mm 0 mps 652 mmHg 72%
23:00 +1°C° 0 mm 0 mps 652 mmHg 73%

5 March, Friday

Time Temperature Precipitation Wind Pressure Humidity
00:00 +2°C° 0 mm 1 mps 652 mmHg 75%
01:00 +2°C° 0 mm 1 mps 652 mmHg 76%
02:00 +1°C° 0 mm 1 mps 651 mmHg 78%
03:00 +1°C° 0 mm 1 mps 651 mmHg 80%
04:00 +1°C° 0 mm 1 mps 650 mmHg 81%
05:00 +1°C° 0 mm 1 mps 650 mmHg 82%
06:00 +1°C° 0 mm 1 mps 651 mmHg 83%
07:00 +1°C° 0 mm 1 mps 651 mmHg 83%
08:00 +2°C° 0 mm 2 mps 651 mmHg 75%
09:00 +4°C° 0 mm 2 mps 651 mmHg 67%
10:00 +5°C° 0 mm 2 mps 652 mmHg 59%
11:00 +6°C° 0 mm 2 mps 652 mmHg 58%
12:00 +6°C° 0 mm 2 mps 652 mmHg 56%
13:00 +7°C° 0 mm 2 mps 652 mmHg 55%
14:00 +6°C° 0 mm 2 mps 651 mmHg 58%
15:00 +6°C° 0 mm 2 mps 651 mmHg 62%
16:00 +5°C° 0 mm 2 mps 651 mmHg 65%
17:00 +4°C° 0 mm 2 mps 651 mmHg 72%
18:00 +3°C° 0 mm 2 mps 651 mmHg 79%
19:00 +2°C° 0 mm 2 mps 650 mmHg 86%
20:00 +2°C° 0.1 mm 2 mps 651 mmHg 86%
21:00 +2°C° 0.1 mm 2 mps 651 mmHg 86%
22:00 +2°C° 0.1 mm 2 mps 651 mmHg 86%
23:00 +2°C° 0.4 mm 2 mps 651 mmHg 87%

6 March, Saturday

Time Temperature Precipitation Wind Pressure Humidity
00:00 +2°C° 0.4 mm 2 mps 651 mmHg 88%
01:00 +2°C° 0.4 mm 2 mps 651 mmHg 89%
02:00 +2°C° 0.2 mm 2 mps 651 mmHg 89%
03:00 +2°C° 0.2 mm 1 mps 651 mmHg 89%
04:00 +2°C° 0.2 mm 1 mps 651 mmHg 89%
05:00 +2°C° 0 mm 1 mps 651 mmHg 88%
06:00 +2°C° 0 mm 1 mps 651 mmHg 87%
07:00 +2°C° 0 mm 1 mps 651 mmHg 86%
08:00 +4°C° 0 mm 1 mps 652 mmHg 80%
09:00 +5°C° 0 mm 1 mps 653 mmHg 74%
10:00 +6°C° 0 mm 1 mps 653 mmHg 69%
11:00 +6°C° 0.1 mm 1 mps 653 mmHg 69%
12:00 +7°C° 0.1 mm 1 mps 653 mmHg 69%
13:00 +7°C° 0.1 mm 1 mps 653 mmHg 70%
14:00 +7°C° 0.2 mm 1 mps 653 mmHg 71%
15:00 +6°C° 0.2 mm 2 mps 653 mmHg 73%
16:00 +6°C° 0.2 mm 2 mps 653 mmHg 74%
17:00 +5°C° 0.1 mm 2 mps 653 mmHg 80%
18:00 +4°C° 0.1 mm 2 mps 653 mmHg 85%
19:00 +3°C° 0.1 mm 1 mps 653 mmHg 91%
20:00 +3°C° 0 mm 1 mps 653 mmHg 91%
21:00 +3°C° 0 mm 1 mps 653 mmHg 91%
22:00 +3°C° 0 mm 1 mps 654 mmHg 90%
23:00 +2°C° 0 mm 1 mps 654 mmHg 89%

7 March, Sunday

Time Temperature Precipitation Wind Pressure Humidity
00:00 +2°C° 0 mm 1 mps 654 mmHg 88%
01:00 +2°C° 0 mm 1 mps 653 mmHg 87%
02:00 +2°C° 0 mm 1 mps 653 mmHg 86%
03:00 +2°C° 0 mm 1 mps 653 mmHg 86%
04:00 +1°C° 0 mm 1 mps 653 mmHg 85%
05:00 +2°C° 0 mm 1 mps 653 mmHg 84%
06:00 +2°C° 0 mm 1 mps 653 mmHg 83%
07:00 +2°C° 0 mm 1 mps 653 mmHg 82%
08:00 +4°C° 0 mm 1 mps 654 mmHg 75%
09:00 +6°C° 0 mm 1 mps 654 mmHg 67%
10:00 +7°C° 0 mm 0 mps 655 mmHg 60%
11:00 +8°C° 0 mm 1 mps 655 mmHg 58%
12:00 +8°C° 0 mm 1 mps 655 mmHg 56%
13:00 +8°C° 0 mm 2 mps 654 mmHg 54%
14:00 +7°C° 0.1 mm 2 mps 654 mmHg 57%
15:00 +7°C° 0.1 mm 2 mps 653 mmHg 60%
16:00 +6°C° 0.1 mm 2 mps 653 mmHg 63%
17:00 +5°C° 0 mm 2 mps 653 mmHg 70%
18:00 +4°C° 0 mm 2 mps 652 mmHg 77%
19:00 +4°C° 0 mm 1 mps 652 mmHg 84%
20:00 +3°C° 0 mm 1 mps 652 mmHg 85%
21:00 +3°C° 0 mm 1 mps 651 mmHg 86%
22:00 +2°C° 0 mm 1 mps 651 mmHg 87%
23:00 +2°C° 0 mm 1 mps 651 mmHg 86%
Show more

We Need Your Consent

Meteoprog and our Service Providers may store and access personal data such as cookies, device identifiers or other similar technologies on your device and process such data to personalise content and ads, as well as provide social media features and to analyse the traffic.

  • Store and/or access information on your device

    Cookies, device identifiers or other information can be stored or accessed on your device for the purposes indicated above.

  • Personalised ads and content, ad and content measurement, audience insights, and products development

    Ads and content can be personalised based on a profile. More data can be added to better personalise ads and content. Ad and content performance can be measured. Insights about the audience who saw the ads and content can be derived. Such data can be used to develop or improve user’s experience, systems and software.

By clicking ‘I Agree’ you will allow the use of indicated cookies, device identifiers, web beacons or other similar technologies. Your settings can be changed in the browser on your device.

For certain purposes, legitimate interests may be relied on, rather than consent. You can read more about this in our Privacy and Cookie Policy.